Home > Weather > Sidon > Past weeks

Flag for Lebanon Past Weather in Sidon, Lebanon — Yesterday and Last 2 Weeks

Now
81 °F

Passing clouds.


Feels Like: 85 °F
Forecast: 81 / 90 °F
Wind: 6 mph from Southwest

Location: Beirut Airport

Current Time: Jul 28, 2016 at 2:07:49 AM

Latest Report: Jul 28, 2016 at 1:00 AM


Visibility: 5 mi

Pressure: 29.74 "Hg

Humidity: 74%

Dew Point: 72 °F

Location of SidonLocation

Past Weather in Sidon — Graph

°F

Sidon Temperature Yesterday

Maximum temperature yesterday: 88 °F (at 1:00 PM)
Minimum temperature yesterday: 79 °F (at 5:00 AM)
Average temperature yesterday: 83 °F

High & Low Weather Summary for the Past Weeks

 TemperatureHumidityPressure
High88 °F (Jul 13, 3:00 PM)84% (Jul 14, 12:00 AM)29.92 "Hg (Jul 14, 12:00 AM)
Low77 °F (Jul 15, 6:00 AM)48% (Jul 22, 8:00 AM)29.65 "Hg (Jul 24, 7:00 PM)
Average83 °F67%29.77 "Hg
* Reported Jul 13 12:00 AM — Jul 28 12:00 AM, Sidon, Weather by CustomWeather, © 2016

Note: Actual official high and low records may vary slightly from our data, if they occured in-between our weather recording intervals... More about our weather records

Advertising

Sidon Weather History for the Previous 24 Hours

Scroll right to see more
 ConditionsComfort  
Time TempWeatherWind HumidityBarometerVisibility
12:00 AM
Thu, Jul 28
82 °FPassing clouds.6 mph70%29.77 "Hg5 mi
11:00 PM
Wed, Jul 27
82 °FPassing clouds.7 mph74%29.77 "Hg5 mi
9:00 PM82 °FPassing clouds.8 mph74%29.77 "Hg5 mi
8:00 PM84 °FScattered clouds.7 mph70%29.74 "Hg5 mi
7:00 PM84 °FScattered clouds.7 mph70%29.74 "Hg5 mi
6:00 PM86 °FScattered clouds.9 mph66%29.74 "HgN/A
5:00 PM86 °FScattered clouds.10 mph66%29.77 "HgN/A
4:00 PM86 °FPassing clouds.12 mph66%29.77 "Hg5 mi
3:00 PM86 °FPassing clouds.12 mph66%29.77 "Hg5 mi
2:00 PM86 °FPassing clouds.12 mph66%29.77 "Hg5 mi
1:00 PM88 °FClear.10 mph62%29.77 "Hg4 mi
12:00 PM86 °FClear.12 mph66%29.77 "Hg4 mi
11:00 AM84 °FClear.13 mph70%29.77 "Hg4 mi
10:00 AM84 °FScattered clouds.12 mph70%29.77 "Hg5 mi
9:00 AM84 °FPassing clouds.12 mph66%29.77 "Hg5 mi
8:00 AM81 °FPassing clouds.8 mph66%29.77 "Hg5 mi
7:00 AM79 °FScattered clouds.3 mph70%29.77 "Hg5 mi
6:00 AM79 °FPassing clouds.5 mph74%29.77 "Hg5 mi
5:00 AM79 °FPassing clouds.5 mph79%29.74 "Hg5 mi
4:00 AM81 °FPassing clouds.3 mph79%29.77 "Hg5 mi
3:00 AM81 °FPassing clouds.3 mph79%29.77 "Hg5 mi
2:00 AM81 °FPassing clouds.3 mph79%29.77 "Hg5 mi
Weather by CustomWeather, © 2016

See weather overviewHow to use our weather pages